When you browse on this site, cookies collect data to enhance your experience and personalize the content and advertising you see.
Visit our Privacy Policy to learn more. By continuing to use the site, you agree to this use of cookies and data.
  • In Belgium
  • List of Countries
  • For 7 days
  • Water Temperature
  • Satellite Maps
  • Weather Map
  • Weather Widgets
  • user-avatar
    Login

    Hourly Weather Maaseik

    Today, 15 December, Saturday

    Time Temperature Precipitation Wind Pressure Humidity
    00:00 +2°C° 0 mm 1 mps 766 mmHg 66%
    01:00 -1°C° 0 mm 2 mps 766 mmHg 66%
    02:00 -1°C° 0 mm 2 mps 766 mmHg 66%
    03:00 -1°C° 0 mm 2 mps 766 mmHg 65%
    04:00 -1°C° 0 mm 2 mps 766 mmHg 67%
    05:00 -2°C° 0 mm 2 mps 766 mmHg 69%
    06:00 -2°C° 0 mm 2 mps 766 mmHg 71%
    07:00 -2°C° 0 mm 2 mps 766 mmHg 69%
    08:00 -1°C° 0 mm 2 mps 766 mmHg 68%
    09:00 -1°C° 0 mm 3 mps 766 mmHg 66%
    10:00 0°C° 0 mm 3 mps 765 mmHg 62%
    11:00 -1°C° 0 mm 4 mps 765 mmHg 59%
    12:00 0°C° 0 mm 4 mps 765 mmHg 55%
    13:00 0°C° 0 mm 4 mps 764 mmHg 56%
    14:00 -1°C° 0 mm 4 mps 763 mmHg 57%
    15:00 -1°C° 0 mm 4 mps 763 mmHg 59%
    16:00 -1°C° 0 mm 4 mps 762 mmHg 59%
    17:00 -1°C° 0 mm 5 mps 761 mmHg 60%
    18:00 -2°C° 0 mm 5 mps 761 mmHg 60%
    19:00 -1°C° 0 mm 5 mps 760 mmHg 58%
    20:00 -2°C° 0 mm 6 mps 759 mmHg 56%
    21:00 -2°C° 0 mm 6 mps 758 mmHg 54%
    22:00 -2°C° 0.2 mm 6 mps 758 mmHg 57%
    23:00 -1°C° 0.2 mm 6 mps 757 mmHg 61%

    Tomorrow, 16 December, Sunday

    Time Temperature Precipitation Wind Pressure Humidity
    00:00 -1°C° 0.2 mm 6 mps 757 mmHg 64%
    01:00 -1°C° 0.6 mm 6 mps 756 mmHg 69%
    02:00 0°C° 0.6 mm 5 mps 755 mmHg 75%
    03:00 0°C° 0.6 mm 5 mps 754 mmHg 81%
    04:00 0°C° 0.2 mm 4 mps 754 mmHg 84%
    05:00 0°C° 0.2 mm 4 mps 754 mmHg 86%
    06:00 +1°C° 0.2 mm 4 mps 754 mmHg 89%
    07:00 +2°C° 0.1 mm 3 mps 754 mmHg 91%
    08:00 +2°C° 0.1 mm 3 mps 754 mmHg 92%
    09:00 +2°C° 0.1 mm 3 mps 755 mmHg 94%
    10:00 +3°C° 0 mm 3 mps 755 mmHg 93%
    11:00 +3°C° 0 mm 3 mps 755 mmHg 92%
    12:00 +4°C° 0 mm 3 mps 755 mmHg 92%
    13:00 +4°C° 0 mm 3 mps 755 mmHg 93%
    14:00 +3°C° 0 mm 3 mps 755 mmHg 94%
    15:00 +3°C° 0 mm 3 mps 755 mmHg 95%
    16:00 +3°C° 0 mm 3 mps 756 mmHg 95%
    17:00 +3°C° 0 mm 3 mps 756 mmHg 95%
    18:00 +1°C° 0 mm 4 mps 757 mmHg 95%
    19:00 +3°C° 0 mm 4 mps 757 mmHg 94%
    20:00 +3°C° 0 mm 4 mps 757 mmHg 94%
    21:00 +3°C° 0 mm 4 mps 758 mmHg 93%
    22:00 +3°C° 0 mm 3 mps 758 mmHg 93%
    23:00 +3°C° 0 mm 3 mps 758 mmHg 93%

    Day after tomorrow, 17 December, Monday

    Time Temperature Precipitation Wind Pressure Humidity
    00:00 +2°C° 0 mm 3 mps 758 mmHg 92%
    01:00 +2°C° 0.1 mm 3 mps 758 mmHg 92%
    02:00 +3°C° 0.1 mm 3 mps 758 mmHg 92%
    03:00 +3°C° 0.1 mm 3 mps 758 mmHg 92%
    04:00 +3°C° 0.6 mm 3 mps 758 mmHg 93%
    05:00 +3°C° 0.6 mm 3 mps 759 mmHg 93%
    06:00 +3°C° 0.6 mm 3 mps 759 mmHg 93%
    07:00 +3°C° 0.3 mm 3 mps 760 mmHg 94%
    08:00 +3°C° 0.3 mm 3 mps 760 mmHg 94%
    09:00 +3°C° 0.3 mm 3 mps 761 mmHg 94%
    10:00 +4°C° 0 mm 3 mps 761 mmHg 93%
    11:00 +5°C° 0 mm 3 mps 762 mmHg 91%
    12:00 +5°C° 0 mm 3 mps 762 mmHg 90%
    13:00 +5°C° 0 mm 3 mps 763 mmHg 91%
    14:00 +5°C° 0 mm 3 mps 763 mmHg 92%
    15:00 +4°C° 0 mm 3 mps 763 mmHg 93%
    16:00 +4°C° 0 mm 3 mps 764 mmHg 93%
    17:00 +3°C° 0 mm 3 mps 765 mmHg 94%
    18:00 +3°C° 0 mm 3 mps 765 mmHg 94%
    19:00 +3°C° 0 mm 3 mps 766 mmHg 94%
    20:00 +3°C° 0 mm 3 mps 766 mmHg 94%
    21:00 +3°C° 0 mm 3 mps 766 mmHg 94%
    22:00 +3°C° 0 mm 3 mps 766 mmHg 94%
    23:00 +3°C° 0 mm 3 mps 767 mmHg 94%

    18 December, Tuesday

    Time Temperature Precipitation Wind Pressure Humidity
    00:00 +3°C° 0 mm 3 mps 767 mmHg 93%
    01:00 +3°C° 0 mm 3 mps 766 mmHg 93%
    02:00 +2°C° 0 mm 3 mps 766 mmHg 93%
    03:00 +2°C° 0 mm 3 mps 766 mmHg 93%
    04:00 +3°C° 0 mm 3 mps 766 mmHg 92%
    05:00 +3°C° 0 mm 4 mps 766 mmHg 92%
    06:00 +3°C° 0 mm 4 mps 766 mmHg 91%
    07:00 +3°C° 0 mm 4 mps 766 mmHg 90%
    08:00 +3°C° 0 mm 4 mps 766 mmHg 89%
    09:00 +3°C° 0 mm 4 mps 766 mmHg 88%
    10:00 +4°C° 0 mm 4 mps 765 mmHg 83%
    11:00 +5°C° 0 mm 5 mps 764 mmHg 79%
    12:00 +6°C° 0 mm 5 mps 764 mmHg 74%
    13:00 +6°C° 0 mm 5 mps 763 mmHg 74%
    14:00 +5°C° 0 mm 5 mps 762 mmHg 74%
    15:00 +5°C° 0 mm 4 mps 762 mmHg 73%
    16:00 +5°C° 0 mm 5 mps 761 mmHg 72%
    17:00 +3°C° 0 mm 5 mps 761 mmHg 71%
    18:00 +3°C° 0 mm 6 mps 760 mmHg 70%
    19:00 +3°C° 0 mm 6 mps 760 mmHg 69%
    20:00 +3°C° 0 mm 6 mps 759 mmHg 68%
    21:00 +3°C° 0 mm 6 mps 759 mmHg 67%
    22:00 +3°C° 0 mm 6 mps 759 mmHg 67%
    23:00 +3°C° 0 mm 6 mps 758 mmHg 68%

    19 December, Wednesday

    Time Temperature Precipitation Wind Pressure Humidity
    00:00 +3°C° 0 mm 6 mps 758 mmHg 69%
    01:00 +3°C° 0 mm 6 mps 758 mmHg 70%
    02:00 +4°C° 0 mm 6 mps 757 mmHg 72%
    03:00 +4°C° 0 mm 6 mps 757 mmHg 74%
    04:00 +4°C° 0.2 mm 6 mps 757 mmHg 77%
    05:00 +5°C° 0.2 mm 5 mps 757 mmHg 80%
    06:00 +6°C° 0.2 mm 5 mps 757 mmHg 83%
    07:00 +6°C° 0.3 mm 5 mps 758 mmHg 84%
    08:00 +6°C° 0.3 mm 5 mps 758 mmHg 86%
    09:00 +6°C° 0.3 mm 4 mps 758 mmHg 88%
    10:00 +6°C° 0.1 mm 4 mps 758 mmHg 87%
    11:00 +8°C° 0.1 mm 3 mps 759 mmHg 87%
    12:00 +8°C° 0.1 mm 3 mps 759 mmHg 87%
    13:00 +8°C° 0 mm 2 mps 759 mmHg 89%
    14:00 +7°C° 0 mm 2 mps 759 mmHg 90%
    15:00 +7°C° 0 mm 2 mps 759 mmHg 92%
    16:00 +7°C° 0 mm 2 mps 759 mmHg 92%
    17:00 +6°C° 0 mm 2 mps 759 mmHg 93%
    18:00 +7°C° 0 mm 1 mps 759 mmHg 94%
    19:00 +7°C° 0.1 mm 1 mps 759 mmHg 94%
    20:00 +7°C° 0.1 mm 1 mps 759 mmHg 94%
    21:00 +7°C° 0.1 mm 1 mps 759 mmHg 94%
    22:00 +7°C° 0.4 mm 1 mps 759 mmHg 95%
    23:00 +7°C° 0.4 mm 1 mps 759 mmHg 95%

    20 December, Thursday

    Time Temperature Precipitation Wind Pressure Humidity
    00:00 +6°C° 0.4 mm 1 mps 759 mmHg 95%
    01:00 +6°C° 0.2 mm 1 mps 760 mmHg 95%
    02:00 +6°C° 0.2 mm 1 mps 760 mmHg 95%
    03:00 +6°C° 0.2 mm 1 mps 760 mmHg 95%
    04:00 +6°C° 0 mm 1 mps 760 mmHg 95%
    05:00 +6°C° 0 mm 1 mps 760 mmHg 95%
    06:00 +6°C° 0 mm 1 mps 760 mmHg 95%
    07:00 +6°C° 0 mm 1 mps 761 mmHg 95%
    08:00 +5°C° 0 mm 2 mps 761 mmHg 95%
    09:00 +5°C° 0 mm 2 mps 761 mmHg 95%
    10:00 +6°C° 0 mm 2 mps 762 mmHg 92%
    11:00 +7°C° 0 mm 2 mps 762 mmHg 89%
    12:00 +7°C° 0 mm 2 mps 762 mmHg 87%
    13:00 +7°C° 0 mm 2 mps 762 mmHg 89%
    14:00 +7°C° 0 mm 2 mps 762 mmHg 91%
    15:00 +6°C° 0 mm 2 mps 762 mmHg 93%
    16:00 +6°C° 0 mm 2 mps 763 mmHg 93%
    17:00 +5°C° 0 mm 2 mps 763 mmHg 94%
    18:00 +5°C° 0 mm 2 mps 764 mmHg 94%
    19:00 +4°C° 0 mm 2 mps 764 mmHg 94%
    20:00 +4°C° 0 mm 2 mps 764 mmHg 94%
    21:00 +4°C° 0 mm 2 mps 764 mmHg 94%
    22:00 +3°C° 0 mm 2 mps 765 mmHg 94%
    23:00 +3°C° 0 mm 2 mps 765 mmHg 94%
    Show more